Temp
6 6 6 6 7 7 7 7 7 7 7 7 7 7 6 7 7 7 7 7 7 5 5 4 4 3 1 -1 -3 -4 -6 -5 -6 -6 -6 -7 -7 -5 -7 -7 -7 -7 -7 -7 -7
6 6 6 6 6 6 7 6 7 7 7 7 6 6 6 7 7 6 7 7 6 5 4 4 3 2 -0 -3 -4 -5 -6 -6 -7 -7 -7 -7 -7 -7 -7 -6 -6 -6 -7 -7 -8
6 6 6 6 6 6 6 6 6 7 7 6 6 6 6 6 6 6 6 6 5 5 4 3 2 1 -1 -3 -4 -6 -6 -7 -7 -7 -7 -6 -6 -6 -6 -6 -6 -6 -5 -6 -6
6 6 6 6 6 6 6 6 6 6 6 6 6 6 6 6 5 5 6 5 5 5 4 2 1 -0 -2 -4 -5 -5 -6 -7 -7 -7 -6 -6 -7 -6 -6 -6 -7 -6 -6 -5 -6
5 5 5 5 6 6 6 6 6 6 6 5 6 6 5 6 6 5 6 5 5 4 3 2 0 -2 -3 -4 -5 -5 -5 -6 -7 -7 -6 -6 -6 -6 -6 -5 -6 -6 -5 -5 -6
5 5 5 5 5 5 6 6 6 6 6 6 5 6 5 5 5 5 5 5 4 4 2 1 -1 -2 -3 -4 -5 -5 -5 -6 -6 -6 -6 -7 -7 -6 -5 -6 -6 -5 -6 -5 -5
5 5 5 5 5 5 5 6 6 6 6 6 5 5 5 5 5 6 4 4 4 3 1 -0 -2 -3 -4 -4 -4 -4 -4 -6 -6 -6 -6 -6 -7 -8 -7 -6 -7 -6 -6 -5 -4
4 5 5 5 5 5 5 5 5 5 5 5 5 5 5 5 4 3 4 4 3 2 0 -1 -2 -3 -3 -4 -4 -4 -5 -6 -7 -6 -6 -7 -8 -9 -8 -7 -6 -6 -6 -5 -5
4 4 4 5 5 5 5 5 5 5 5 5 4 5 4 4 4 4 4 3 3 2 0 -2 -3 -3 -3 -3 -5 -6 -6 -6 -7 -7 -7 -7 -8 -9 -8 -8 -7 -6 -6 -5 -5
3 4 4 4 4 4 4 5 5 5 5 4 4 4 4 3 4 4 4 3 2 1 -1 -3 -3 -4 -5 -5 -6 -7 -6 -7 -7 -8 -9 -8 -8 -8 -8 -8 -7 -6 -5 -5 -5
3 3 3 4 4 4 4 4 5 5 4 4 3 3 4 3 3 3 3 2 1 0 -1 -3 -4 -5 -5 -5 -6 -5 -7 -7 -7 -6 -8 -8 -8 -7 -8 -8 -6 -6 -5 -5 -4
2 3 3 3 4 4 4 3 4 4 4 3 3 2 3 3 3 3 3 2 1 0 -2 -4 -5 -5 -5 -5 -5 -6 -7 -6 -6 -6 -8 -8 -8 -8 -8 -8 -8 -6 -5 -4 -4
2 2 3 3 3 3 4 4 4 4 3 3 2 3 3 3 3 3 3 2 1 -1 -2 -4 -5 -5 -5 -5 -4 -5 -7 -5 -7 -5 -6 -8 -7 -6 -8 -8 -7 -6 -6 -5 -4
2 2 2 3 3 2 3 4 3 3 3 2 2 3 3 3 2 2 1 1 0 -1 -2 -4 -4 -5 -4 -5 -5 -7 -7 -5 -6 -7 -5 -7 -4 -7 -7 -8 -7 -6 -5 -4 -4
1 2 2 2 1 1 2 3 3 3 1 2 2 2 2 2 1 1 1 1 -1 -2 -3 -4 -4 -4 -5 -6 -6 -6 -5 -5 -6 -7 -6 -7 -6 -9 -9 -5 -7 -7 -5 -5 -4
0 1 1 1 1 1 1 2 3 2 1 2 2 2 2 1 1 0 -0 0 -1 -3 -4 -4 -5 -5 -6 -5 -6 -5 -5 -5 -5 -6 -4 -8 -8 -8 -10 -11 -8 -8 -7 -5 -4
-0 -0 0 0 0 1 0 -0 2 2 2 2 2 2 2 1 1 0 -0 0 -2 -3 -4 -5 -6 -6 -6 -4 -5 -4 -4 -3 -3 -4 -4 -7 -6 -9 -11 -10 -10 -8 -7 -5 -4
-0 -0 -0 -0 0 -0 0 -2 1 3 3 2 1 1 1 1 0 -0 -1 -2 -3 -3 -5 -5 -5 -6 -7 -8 -8 -8 -9 -8 -5 -5 -4 -6 -8 -9 -10 -10 -9 -8 -8 -6 -5
-1 -1 -1 -0 -1 -0 -0 -2 1 2 2 2 2 1 1 0 -0 -1 -2 -3 -4 -4 -4 -5 -7 -7 -7 -8 -8 -8 -10 -10 -11 -10 -7 -6 -9 -9 -9 -8 -8 -8 -7 -6 -5
-1 -1 -1 -1 -0 -1 -0 -1 -1 1 1 1 1 1 0 -0 -1 -1 -2 -4 -4 -4 -5 -6 -6 -6 -7 -8 -9 -9 -9 -10 -10 -7 -5 -5 -8 -10 -8 -8 -8 -7 -7 -6 -6
-1 -1 -1 -1 -1 -1 -1 -1 -2 -1 0 0 1 0 -0 -1 -1 -2 -3 -4 -4 -5 -5 -6 -6 -7 -7 -8 -10 -10 -10 -10 -10 -10 -7 -6 -7 -10 -9 -10 -9 -8 -8 -7 -6
-1 -1 -1 -1 -1 -1 -1 -1 -1 -2 0 -0 -0 -0 -1 -1 -2 -2 -3 -3 -4 -5 -5 -6 -6 -7 -8 -9 -10 -10 -11 -10 -10 -9 -10 -10 -7 -10 -9 -9 -9 -8 -8 -7 -6
-1 -1 -1 -1 -1 -1 -1 -1 -2 -3 -2 -0 -0 -1 -1 -1 -2 -3 -3 -4 -4 -5 -6 -6 -7 -8 -8 -9 -10 -11 -11 -11 -11 -11 -12 -10 -7 -10 -10 -9 -9 -8 -8 -8 -6
-2 -2 -1 -1 -1 -1 -1 -2 -2 -3 -3 -1 -1 -1 -1 -2 -2 -2 -3 -4 -5 -5 -6 -6 -7 -7 -8 -9 -10 -11 -11 -11 -11 -11 -11 -11 -10 -10 -9 -8 -8 -8 -8 -8 -7
-2 -2 -1 -1 -1 -1 -1 -2 -2 -3 -3 -1 -1 -2 -2 -2 -2 -3 -3 -4 -5 -5 -6 -6 -7 -7 -8 -8 -9 -10 -11 -11 -11 -11 -11 -11 -11 -10 -10 -9 -8 -9 -8 -7 -7
-1 -2 -2 -1 -1 -1 -1 -1 -2 -4 -3 -2 -2 -2 -2 -2 -3 -3 -4 -4 -5 -6 -6 -6 -7 -7 -8 -8 -10 -10 -11 -11 -11 -11 -11 -11 -11 -10 -11 -10 -9 -8 -8 -7 -7
-2 -1 -2 -2 -1 -1 -1 -1 -3 -3 -4 -4 -2 -2 -2 -3 -3 -3 -4 -5 -5 -6 -6 -7 -7 -8 -9 -9 -10 -10 -9 -10 -11 -11 -11 -11 -11 -10 -10 -10 -9 -8 -8 -8 -8
Height
3160 3158 3156 3153 3150 3147 3144 3142 3139 3136 3132 3128 3127 3126 3124 3121 3119 3117 3113 3109 3104 3098 3092 3085 3079 3073 3069 3066 3063 3059 3060 3058 3056 3052 3048 3045 3040 3037 3033 3026 3023 3020 3015 3012 3012
3158 3156 3154 3152 3149 3147 3144 3142 3140 3135 3132 3129 3126 3125 3123 3120 3118 3116 3113 3108 3102 3096 3090 3084 3078 3073 3069 3064 3061 3060 3061 3059 3055 3052 3045 3041 3037 3031 3026 3022 3018 3010 3006 3003 3005
3157 3155 3153 3151 3148 3146 3143 3141 3138 3135 3130 3129 3126 3125 3122 3119 3117 3115 3111 3106 3100 3094 3088 3082 3076 3071 3066 3062 3060 3057 3058 3056 3053 3049 3043 3037 3033 3028 3024 3018 3012 3004 3000 2998 2997
3156 3154 3152 3150 3147 3145 3142 3140 3137 3134 3129 3128 3125 3124 3122 3119 3119 3113 3109 3104 3099 3093 3087 3080 3075 3070 3065 3062 3058 3056 3054 3051 3049 3045 3039 3035 3031 3027 3022 3015 3007 3001 2997 2995 2996
3154 3153 3150 3148 3146 3144 3141 3139 3136 3133 3128 3126 3125 3122 3121 3119 3118 3113 3108 3103 3098 3091 3085 3080 3075 3069 3065 3061 3056 3053 3052 3051 3049 3045 3037 3034 3030 3025 3019 3011 3004 2999 2995 2994 2995
3151 3150 3149 3147 3144 3142 3139 3137 3134 3132 3128 3125 3123 3121 3120 3120 3115 3111 3106 3102 3097 3090 3083 3078 3073 3069 3063 3060 3058 3055 3052 3050 3047 3043 3037 3032 3028 3022 3015 3005 3000 2995 2993 2990 2991
3148 3147 3147 3145 3142 3140 3137 3134 3133 3130 3126 3124 3122 3120 3118 3118 3114 3109 3105 3101 3095 3089 3082 3077 3074 3071 3064 3059 3058 3055 3053 3050 3046 3042 3036 3030 3028 3017 3009 3003 2997 2994 2992 2991 2990
3146 3145 3144 3142 3140 3138 3135 3132 3130 3128 3125 3122 3121 3119 3117 3114 3110 3106 3104 3099 3094 3087 3081 3076 3074 3070 3063 3059 3057 3054 3050 3048 3044 3040 3035 3033 3027 3017 3007 3000 2995 2993 2991 2990 2987
3143 3143 3142 3139 3137 3136 3133 3130 3127 3125 3123 3120 3119 3117 3116 3114 3111 3108 3102 3097 3092 3087 3081 3077 3073 3067 3064 3059 3059 3053 3050 3046 3044 3039 3035 3033 3025 3018 3009 3000 2994 2992 2990 2988 2985
3140 3140 3139 3137 3135 3132 3130 3128 3124 3123 3121 3119 3117 3118 3116 3113 3109 3106 3101 3096 3091 3085 3081 3077 3071 3069 3064 3058 3059 3053 3050 3047 3044 3040 3036 3033 3029 3021 3010 3002 2994 2992 2989 2986 2983
3136 3137 3136 3135 3133 3131 3129 3126 3125 3121 3118 3116 3116 3114 3111 3110 3107 3102 3098 3094 3090 3087 3080 3074 3072 3066 3063 3059 3056 3053 3049 3046 3043 3039 3037 3033 3027 3022 3012 3003 2994 2990 2988 2984 2982
3133 3132 3133 3131 3131 3128 3126 3123 3121 3121 3115 3112 3111 3112 3110 3108 3105 3102 3098 3094 3090 3085 3080 3076 3073 3070 3065 3059 3057 3053 3050 3047 3042 3038 3036 3034 3030 3024 3013 3003 2996 2991 2986 2984 2983
3128 3129 3128 3127 3127 3125 3123 3120 3119 3116 3113 3110 3109 3108 3108 3107 3103 3100 3096 3091 3087 3084 3080 3077 3077 3071 3065 3061 3055 3051 3048 3045 3044 3038 3035 3033 3027 3024 3016 3007 2999 2994 2990 2986 2983
3124 3124 3122 3124 3125 3122 3121 3119 3117 3114 3110 3109 3107 3107 3106 3103 3102 3097 3092 3091 3085 3084 3079 3078 3075 3072 3066 3061 3055 3049 3045 3043 3043 3043 3040 3036 3030 3024 3015 3009 3002 2993 2989 2988 2987
3118 3118 3118 3119 3118 3118 3118 3116 3114 3113 3110 3107 3105 3104 3102 3103 3102 3097 3092 3088 3084 3083 3083 3081 3075 3071 3064 3060 3057 3051 3043 3042 3041 3041 3041 3037 3033 3028 3015 3002 3000 2997 2990 2990 2988
3112 3113 3114 3114 3114 3114 3112 3113 3113 3113 3104 3102 3101 3101 3101 3100 3098 3095 3091 3088 3085 3082 3080 3078 3076 3071 3066 3060 3056 3049 3042 3042 3041 3041 3040 3042 3039 3032 3020 3018 3009 3005 3000 2995 2992
3106 3108 3109 3109 3109 3108 3109 3111 3112 3106 3103 3101 3099 3097 3097 3098 3096 3094 3092 3087 3085 3082 3081 3076 3075 3071 3068 3064 3058 3051 3043 3042 3041 3041 3043 3041 3040 3040 3033 3024 3015 3003 2997 2994 2992
3100 3101 3102 3103 3103 3104 3106 3109 3108 3101 3098 3098 3097 3095 3095 3095 3094 3091 3089 3086 3084 3081 3080 3078 3075 3073 3070 3066 3061 3054 3051 3051 3045 3043 3043 3042 3044 3043 3038 3031 3022 3013 3004 3000 2998
3094 3096 3096 3099 3098 3099 3102 3102 3101 3097 3097 3097 3095 3093 3093 3093 3093 3090 3088 3087 3084 3082 3082 3078 3078 3075 3071 3069 3065 3059 3056 3055 3053 3052 3050 3046 3045 3042 3039 3033 3024 3015 3009 3005 3002
3087 3090 3090 3091 3092 3094 3095 3095 3095 3095 3094 3094 3094 3092 3091 3092 3090 3088 3087 3087 3084 3082 3080 3079 3076 3075 3073 3071 3069 3064 3061 3058 3056 3054 3049 3047 3047 3046 3035 3028 3026 3018 3012 3007 3006
3082 3084 3085 3086 3087 3088 3087 3087 3088 3091 3091 3092 3091 3090 3090 3091 3089 3087 3086 3086 3084 3081 3079 3077 3077 3078 3075 3073 3070 3067 3062 3060 3059 3060 3055 3050 3049 3047 3041 3033 3027 3022 3016 3011 3006
3076 3078 3081 3081 3084 3082 3081 3081 3083 3086 3087 3087 3089 3088 3088 3089 3087 3086 3084 3084 3083 3080 3079 3078 3076 3074 3076 3073 3071 3068 3066 3062 3062 3060 3058 3057 3052 3048 3044 3037 3032 3026 3019 3014 3009
3069 3072 3074 3076 3076 3077 3076 3076 3077 3080 3083 3083 3085 3086 3087 3086 3087 3083 3083 3083 3081 3080 3079 3078 3075 3073 3073 3075 3071 3069 3067 3064 3061 3060 3060 3059 3052 3048 3044 3040 3032 3027 3022 3017 3010
3065 3066 3068 3070 3070 3072 3072 3072 3073 3075 3078 3080 3081 3083 3084 3084 3084 3083 3081 3081 3079 3078 3078 3078 3075 3073 3075 3073 3071 3069 3068 3065 3062 3062 3057 3055 3049 3047 3042 3037 3033 3029 3023 3016 3010
3057 3059 3061 3063 3064 3067 3068 3068 3068 3072 3074 3076 3078 3080 3081 3081 3081 3081 3079 3079 3077 3076 3076 3076 3074 3071 3070 3069 3067 3067 3065 3064 3062 3060 3058 3056 3050 3045 3040 3035 3030 3027 3024 3017 3010
3050 3054 3055 3057 3060 3062 3063 3063 3066 3068 3072 3073 3075 3077 3078 3078 3079 3079 3078 3077 3076 3074 3074 3074 3072 3069 3067 3066 3065 3063 3063 3061 3059 3057 3054 3051 3049 3045 3041 3036 3031 3027 3023 3018 3011
3044 3047 3050 3050 3053 3057 3058 3058 3061 3063 3067 3070 3072 3074 3075 3076 3077 3076 3075 3075 3074 3073 3073 3072 3070 3067 3065 3065 3064 3062 3059 3058 3057 3055 3053 3049 3047 3043 3040 3037 3031 3025 3021 3018 3012
Wind_Speed
11 13 14 14 14 13 12 14 16 17 15 12 8 7 12 15 11 20 23 28 29 30 31 34 35 35 34 31 28 25 9 14 16 20 24 23 25 22 20 23 21 20 28 29 28
10 12 13 14 15 15 14 14 17 17 16 12 7 8 12 16 12 20 26 28 30 32 32 33 34 33 32 29 27 20 9 12 16 19 22 23 24 23 24 22 22 19 22 23 25
11 12 13 13 14 16 16 14 16 17 15 11 8 9 12 17 13 23 26 29 32 34 34 35 34 31 31 29 24 19 10 13 12 13 21 27 20 12 18 25 28 27 20 19 21
11 12 13 13 14 15 16 14 16 17 15 9 10 8 11 17 15 23 26 30 33 33 34 33 33 30 28 23 21 17 15 11 13 16 21 23 21 22 22 28 28 21 14 12 18
11 12 13 14 15 15 16 16 15 18 16 9 8 9 9 15 17 22 28 32 32 32 32 31 30 29 25 19 20 19 15 7 10 18 19 19 24 22 26 24 23 16 10 7 13
11 12 12 13 14 15 16 16 16 18 17 12 6 12 9 17 21 23 30 32 31 31 30 29 30 29 24 16 18 12 12 5 16 16 15 22 20 26 26 26 23 8 7 10 11
12 10 11 13 13 15 16 17 16 17 17 12 6 13 9 16 20 23 29 29 30 29 26 26 26 25 21 12 12 9 14 8 17 16 12 14 14 30 29 26 17 4 7 10 10
14 11 10 12 14 15 16 17 17 17 16 10 7 11 8 18 22 25 27 29 28 27 25 23 24 24 22 13 9 14 13 11 14 17 17 9 14 31 28 24 17 9 8 9 12
14 12 11 11 12 14 17 18 15 17 14 10 8 8 8 16 16 21 27 28 26 26 22 21 22 26 23 16 10 14 11 13 9 11 12 22 28 33 29 21 12 7 9 10 10
15 13 12 12 12 14 17 18 18 19 12 12 6 4 9 14 17 21 26 26 24 24 19 18 24 25 21 21 12 18 14 13 13 9 10 12 23 31 32 31 23 7 8 8 7
15 14 12 12 12 14 17 18 18 18 18 12 10 7 10 13 15 21 25 25 22 20 17 16 24 31 23 16 21 14 13 14 11 11 12 12 16 36 36 35 25 18 9 10 10
17 14 14 12 12 13 16 19 19 18 18 15 10 7 9 12 11 18 22 22 19 20 16 19 21 25 20 15 21 11 9 12 6 12 10 14 13 33 38 42 35 26 18 11 3
19 18 15 14 15 13 14 20 20 19 16 11 8 6 9 11 8 19 22 22 19 20 13 21 16 23 19 16 21 12 13 12 8 10 10 19 5 35 37 41 33 20 12 14 9
20 18 15 20 18 15 14 20 21 18 10 5 4 4 8 11 7 19 22 21 16 17 11 10 22 21 19 15 25 9 21 6 4 6 8 19 4 27 39 44 41 29 19 10 9
23 21 21 22 19 16 14 20 18 15 3 5 6 3 6 8 10 16 20 20 15 13 13 10 24 18 29 19 25 22 10 1 2 4 6 18 5 17 42 48 45 37 23 17 12
25 22 23 25 22 20 16 16 15 6 6 5 4 3 5 8 9 14 17 20 16 9 13 10 16 18 27 21 19 24 5 3 3 4 1 16 9 17 45 48 42 36 26 15 11
34 31 30 25 21 20 22 11 8 7 5 5 3 4 4 7 7 12 13 17 20 8 12 10 11 19 24 23 13 23 15 1 1 3 3 13 7 9 37 40 38 39 30 18 10
27 29 26 22 23 21 22 7 8 8 9 7 6 5 3 6 5 11 12 18 20 19 6 13 4 20 19 26 16 22 17 5 3 4 5 7 7 9 31 35 32 31 27 16 8
24 30 33 30 19 20 20 10 7 6 7 5 7 6 3 4 4 7 10 14 17 18 9 10 3 14 14 19 21 11 9 9 3 4 4 4 4 11 31 31 33 32 25 14 6
22 25 24 23 29 25 23 21 13 12 13 10 7 5 3 4 3 5 11 8 12 14 14 9 2 9 10 14 19 18 14 4 5 5 4 3 3 13 36 38 34 34 30 19 8
33 26 23 22 24 22 22 24 19 14 15 9 8 7 6 4 2 2 7 6 11 12 11 10 10 9 8 9 14 18 19 7 3 3 3 5 3 20 29 34 32 32 31 25 12
28 28 23 19 21 23 24 24 22 10 14 12 10 10 7 4 2 1 5 6 8 9 9 10 7 5 6 6 10 12 15 16 4 3 2 2 2 20 25 27 27 28 29 25 16
28 31 28 27 24 22 24 24 19 14 13 12 10 9 7 4 3 1 5 5 7 6 7 9 7 4 5 4 7 6 12 11 5 4 1 4 4 23 23 20 22 25 25 24 16
29 28 29 27 29 26 24 22 23 19 12 15 11 10 8 5 3 2 4 4 5 4 5 7 5 4 3 9 11 8 9 8 8 4 6 6 19 18 21 21 20 21 22 23 21
26 29 32 19 20 19 19 21 25 17 14 12 13 13 8 5 4 3 4 5 3 2 4 6 4 9 10 9 9 9 9 5 7 8 4 10 17 19 22 23 21 22 21 21 21
34 30 31 31 28 24 18 24 20 17 13 12 14 9 9 7 5 4 5 5 2 2 3 5 5 11 7 6 8 11 7 4 7 10 8 11 13 18 18 19 17 18 19 19 20
30 30 34 30 28 25 20 20 22 22 16 13 12 11 12 8 6 4 5 6 4 3 4 5 7 9 3 7 11 8 4 5 7 10 7 7 14 17 15 16 17 16 19 19 20
Wind_Direction
342 349 350 354 353 349 348 349 355 356 357 360 2 3 360 3 353 356 352 353 350 349 351 350 353 354 353 353 355 351 344 325 327 318 313 316 313 317 297 305 303 285 277 275 266
334 341 343 346 349 347 344 349 351 356 356 355 9 357 359 3 358 354 354 350 348 350 351 354 354 355 357 359 356 360 340 325 326 319 317 317 320 315 315 319 309 289 278 264 266
324 331 335 339 343 346 343 343 349 350 356 350 353 351 358 3 355 354 352 349 349 351 351 353 354 359 3 1 357 353 338 325 351 336 321 327 332 324 321 318 327 316 316 253 248
313 323 330 333 338 340 339 339 346 348 351 342 356 355 354 3 5 349 350 350 351 350 352 354 357 5 5 6 2 8 12 356 355 342 328 328 324 319 336 319 319 314 316 261 251
301 316 329 332 333 336 340 336 347 345 345 334 346 349 351 353 355 353 353 352 350 350 352 356 359 9 10 10 11 24 9 19 340 343 323 336 325 326 320 322 328 314 305 257 246
292 310 322 328 329 332 339 335 345 344 345 334 305 345 341 355 351 355 355 350 349 351 351 1 2 9 10 16 21 24 7 2 352 354 337 331 321 328 333 334 336 295 273 227 238
282 297 312 322 323 327 335 338 340 342 344 333 298 339 336 350 352 356 354 347 351 351 354 3 5 11 5 14 9 4 21 313 337 348 355 351 332 356 347 346 331 293 261 251 255
279 290 305 316 319 324 330 336 336 340 342 332 310 334 329 346 355 355 347 351 352 354 358 4 5 10 15 13 21 20 3 5 343 359 19 30 347 2 357 344 332 302 271 260 256
274 282 292 303 314 323 327 328 330 336 335 329 311 322 339 344 352 347 350 351 352 356 358 8 9 15 21 14 11 5 336 348 351 4 11 27 23 7 11 6 348 329 302 287 284
273 275 288 298 310 320 324 327 333 332 328 324 297 293 335 347 345 350 350 353 357 357 2 6 13 18 21 27 2 332 336 341 335 315 348 1 16 12 20 22 24 13 319 307 277
270 275 280 291 305 317 321 326 332 325 319 311 276 284 333 343 345 353 352 357 360 359 14 9 14 15 11 19 360 349 329 329 328 333 325 331 318 4 19 22 26 17 328 350 104
271 273 277 286 297 309 317 328 326 312 309 297 268 256 325 338 341 351 354 1 359 4 14 19 20 11 1 6 2 354 337 337 348 353 359 331 317 12 20 23 22 12 12 23 134
263 263 272 277 279 291 303 323 315 314 308 286 252 252 319 336 335 350 358 359 4 10 14 28 17 12 6 3 3 359 349 332 317 353 338 341 255 353 21 22 26 31 15 24 50
256 257 268 270 272 278 294 299 312 316 295 260 218 260 323 339 341 353 2 5 7 17 15 20 13 13 24 14 5 358 331 323 346 347 3 7 339 351 8 17 21 23 29 18 46
256 258 260 265 272 272 278 289 311 312 296 221 226 299 324 354 350 359 4 5 7 20 22 11 12 10 21 4 7 345 342 323 5 327 349 357 318 347 4 13 15 15 21 30 24
251 255 263 265 268 274 267 291 307 290 250 205 228 300 328 343 351 5 12 13 14 15 19 15 10 15 12 8 8 7 359 335 341 12 347 351 351 10 8 359 0 10 16 29 31
242 246 252 263 270 271 278 295 301 227 241 221 233 298 307 335 343 5 7 12 30 26 18 6 4 10 13 23 13 20 36 358 125 18 359 357 19 360 2 3 1 2 6 23 20
246 248 252 274 275 281 281 263 251 257 253 266 275 289 249 345 341 2 11 24 28 26 40 17 3 12 9 18 358 16 35 33 338 339 331 4 15 344 359 2 3 10 4 3 353
259 256 254 258 275 281 292 220 253 267 274 264 281 265 237 328 340 354 10 30 28 29 31 1 357 7 15 17 22 358 16 21 349 286 276 358 354 354 349 6 9 11 14 14 25
259 259 257 257 257 279 274 237 231 256 276 271 270 239 244 307 338 7 16 16 24 26 25 11 15 358 11 13 25 35 21 359 12 345 341 29 25 351 354 358 5 8 15 13 27
248 260 269 263 256 272 266 244 230 247 271 256 250 247 254 279 320 21 20 16 16 21 22 12 15 356 12 7 20 24 32 30 44 29 335 320 58 358 354 351 356 6 4 7 14
246 251 265 263 259 261 265 255 236 225 261 248 253 250 248 274 265 44 23 15 14 21 15 10 2 356 347 345 11 25 20 28 356 351 302 277 307 346 350 351 350 3 0 5 1
237 253 249 271 253 265 268 251 225 225 236 248 234 232 237 249 244 247 0 357 12 27 15 7 2 352 341 326 341 355 359 8 8 332 273 324 10 339 339 352 353 359 359 1 4
250 246 253 263 258 266 278 251 223 219 224 242 240 236 230 237 244 267 335 339 360 26 9 355 2 7 272 285 293 304 331 335 1 298 301 260 317 339 342 355 356 357 358 359 5
241 241 251 251 245 264 275 250 237 219 215 242 236 228 226 233 254 250 318 324 332 7 3 348 319 332 316 297 294 303 322 299 330 326 294 316 332 345 346 352 350 352 357 357 7
236 246 248 252 256 264 273 259 238 201 216 233 230 226 228 230 238 286 302 311 263 318 329 333 312 326 322 304 308 300 294 276 309 321 322 334 341 350 346 342 342 347 351 359 8
242 246 247 256 250 254 266 257 230 214 210 223 236 223 234 231 245 277 292 280 261 278 308 311 323 325 269 311 315 293 280 287 296 310 291 333 340 341 348 346 343 350 349 358 2